Location: Glendale
(37.4556°N, 88.6714°W)
Time: 15:42:21
(UTC+00:00)

Cosmos 2034 Rocket - Pass Details

Date: 08 December 2019
Orbit: 957 x 1001 km, 82.9° (Epoch: 25 January)

Event Time Altitude Azimuth Distance (km) Brightness Sun altitude
Rises 10:47:10 0° 192° (SSW) 3,667 7.0 -25.0°
Reaches altitude 10° 10:49:40 10° 194° (SSW) 2,729 6.3 -24.5°
Maximum altitude 10:55:54 70° 278° (W) 1,050 3.9 -23.3°
Drops below altitude 10° 11:02:16 10° 2° (N) 2,772 6.3 -22.0°
Sets 11:04:50 0° 5° (N) 3,728 7.0 -21.5°
